This is the latest recevied weather packets stored in our database for station/object F1AGU-13. If no packets are shown the sender has not sent any weather packets the latest 10 day(s).
| Time | Temp. | Humidity | Pressure | Rain* | Wind** | Luminosity | Snow |
|---|---|---|---|---|---|---|---|
| 1777752317 | 13.33° C | 66% | 1019.9 hPa | 0 mm | - | - | - |
| 1777751717 | 13.33° C | 67% | 1019.9 hPa | 0 mm | - | - | - |
| 1777751117 | 13.33° C | 67% | 1019.8 hPa | 0 mm | - | - | - |
| 1777750517 | 13.33° C | 69% | 1019.3 hPa | 0 mm | - | - | - |
| 1777749916 | 13.33° C | 72% | 1019.2 hPa | 0 mm | - | - | - |
| 1777749317 | 13.33° C | 72% | 1019.1 hPa | 0 mm | - | - | - |
| 1777748717 | 13.33° C | 73% | 1018.8 hPa | 0 mm | - | - | - |
| 1777748116 | 13.89° C | 71% | 1018.6 hPa | 0 mm | - | - | - |
| 1777747517 | 13.89° C | 68% | 1018.6 hPa | 0 mm | - | - | - |
| 1777746916 | 14.44° C | 68% | 1018.8 hPa | 0 mm | - | - | - |
| 1777746316 | 15° C | 68% | 1018.8 hPa | 0 mm | - | - | - |
| 1777745717 | 15° C | 66% | 1018.9 hPa | 0 mm | - | - | - |
| 1777745116 | 15.56° C | 66% | 1018.9 hPa | 0 mm | - | - | - |
| 1777744516 | 15.56° C | 65% | 1018.9 hPa | 0 mm | - | - | - |
| 1777743916 | 15.56° C | 66% | 1019 hPa | 0 mm | - | - | - |
| 1777743316 | 16.11° C | 68% | 1019 hPa | 0 mm | - | - | - |
| 1777742716 | 16.11° C | 67% | 1019 hPa | 0 mm | - | - | - |
| 1777742116 | 16.67° C | 67% | 1019.1 hPa | 0 mm | - | - | - |
| 1777741516 | 17.22° C | 65% | 1019.4 hPa | 0 mm | - | - | - |
| 1777740918 | 17.78° C | 63% | 1019.3 hPa | 0 mm | - | - | - |
| 1777740316 | 18.33° C | 62% | 1019.6 hPa | 0 mm | - | - | - |
| 1777739716 | 18.33° C | 57% | 1019.6 hPa | 0 mm | - | - | - |
| 1777739116 | 18.89° C | 55% | 1019.7 hPa | 0 mm | - | - | - |
| 1777738516 | 18.89° C | 55% | 1020.1 hPa | 0 mm | - | - | - |
| 1777737916 | 18.89° C | 57% | 1020.1 hPa | 0 mm | - | - | - |
* Rain latest hour (hover to see other rain measurements)
** Current wind speed in m/s (hover to see current wind gust speed)